Вернуться в каталог

STARLINK-30558

АктивенСвязьVLEO
NORAD 58060·PAYLOAD·🇺🇸 United States

Запущен Oct 13, 2023 с Cape Canaveral Space Force Station

Loading…

Ближайшие Пролёты (ближайшие 24 часа)

TLE

СвежийSource: CelesTrak SupGP

Эпоха: Sep 14, 2026, 22:24 UTC

1 58060C 23158K   26257.93381944  .00013528  00000+0  48987-3 0  2575
2 58060  43.0025  38.5450 0001495 269.5232 297.9136 15.27578777    12

Отслеживайте STARLINK-30558 в реальном времени с AllMySat

Download on the App Store